Location: Peterborough
(44.3048°N, 78.3199°W)
Time: 03:24:03
(UTC-04:00)

ISS - Pass Details

Date: 18 May 2025
Orbit: 415 x 418 km, 51.6° (Epoch: 20 June)

Event Time Altitude Azimuth Distance (km) Brightness Sun altitude
Rises 21:32:50 0° 291° (WNW) 2,362 1.7 -9.0°
Reaches altitude 10° 21:35:14 10° 307° (NW) 1,497 0.7 -9.4°
Maximum altitude 21:37:58 22° 1° (N) 956 -1.4 -9.7°
Drops below altitude 10° 21:40:41 10° 56° (NE) 1,494 -1.1 -10.1°
Enters shadow 21:43:01 - 72° (ENE) 2,335 -0.3 -10.4°
